Location: Charbonni�res
(45.9952°N, 2.9982°E)
Time: 18:10:55
(UTC+00:00)

Cosmos 2074 Rocket - Pass Details

Date: 29 November 2020
Orbit: 968 x 985 km, 82.9° (Epoch: 17 January)

Event Time Altitude Azimuth Distance (km) Brightness Sun altitude
Rises 05:27:49 0° 195° (SSW) 3,648 7.0 -16.8°
Reaches altitude 10° 05:30:20 10° 198° (SSW) 2,704 6.3 -16.3°
Maximum altitude 05:36:29 67° 280° (W) 1,047 3.9 -15.3°
Drops below altitude 10° 05:42:42 10° 4° (N) 2,721 6.2 -14.3°
Sets 05:45:14 0° 7° (N) 3,674 6.9 -13.8°
